Other Public Products
Issued by NWS Grand Forks, ND

Home | Current Version | Previous Version | Text Only | Print | Product List | Glossary Off
Versions: 1 2 3 4 5 6 7 8 9 10 11 12 13 14 15 16 17 18 19 20 21 22 23 24 25 26 27 28 29 30 31 32 33 34 35 36 37 38 39 40 41 42 43 44 45 46 47 48 49 50

670
FPUS83 KFGF 300731
OPUFGF
PRAIRIE TO PINES WEATHER ROUNDUP
NATIONAL WEATHER SERVICE EASTERN NORTH DAKOTA/GRAND FORKS ND
200 AM CDT TUE AUG 30 2016

 **SATELLITE DATA USED TO AUGMENT SKY COVER AT AUTOMATED STATIONS**
 *****  WEATHER ACROSS EASTERN NORTH DAKOTA  *****

CITY           SKY/WX    TMP DP  RH WIND       PRES   REMARKS
GRAND FORKS    CLEAR     53  49  86 W5        30.21S
GRAND FORKS AF CLEAR     53  49  88 W3        30.22R
GRAND CITY NWS   N/A     52 N/A N/A NW1         N/A
BUXTON           N/A     59  58  97 NW5         N/A
DEVILS LAKE    CLEAR     54  50  86 CALM      30.24S
FARGO          CLEAR     56  51  84 N7        30.21R
WAHPETON ARPT  CLOUDY    59  54  82 NE6       30.22R
$$

 *****  WEATHER ACROSS CENTRAL AND WESTERN NORTH DAKOTA  *****

CITY           SKY/WX    TMP DP  RH WIND       PRES   REMARKS
JAMESTOWN      CLEAR     53  51  93 N5        30.24S
BISMARCK       CLEAR     55  49  80 NE9       30.25S
MINOT          CLEAR     53  46  77 CALM      30.23F
MINOT AFB      CLEAR     52  45  77 S2        30.22F
GARRISON         N/A     51  46  83 N3        30.24F
WILLISTON      CLEAR     57  42  57 N3        30.22S
DICKINSON      CLEAR     54  45  71 SE10      30.24F
HETTINGER      CLEAR     60  49  66 E8        30.27S
$$

 *****  OTHER OBSERVATIONS NORTHEAST NORTH DAKOTA  *****

CITY           SKY/WX    TMP DP  RH WIND       PRES   REMARKS
WALHALLA       FAIR      50  50 100 CALM      30.22S
LANGDON        FAIR      48  46  93 CALM      30.24S
CAVALIER       FAIR      54  48  82 W3        30.21S
GRAFTON        FAIR      57  50  77 W6        30.23S
CANDO          FAIR      50  50 100 N5        30.26S
FORT TOTTEN      N/A     56  51  83 CALM      29.95S
ROLLA          FAIR      48  46  93 NW3       30.26S
RUGBY          FAIR      52  50  93 CALM      30.24R
 ***** THE ABOVE OBSERVATIONS ARE NON NWS ARE NOT QUALITY
        CONTROLLED AND MAY MIS-REPORT RAIN FOR SNOW...
$$

 *****  OTHER OBSERVATIONS SOUTHEAST NORTH DAKOTA *****

CITY           SKY/WX    TMP DP  RH WIND       PRES   REMARKS
COOPERSTOWN    NOT AVBL
VALLEY CITY    CLOUDY    55  55 100 NW6       30.26S
OAKES            N/A    N/A N/A N/A MISG        N/A
GWINNER        FAIR      57  52  82 N7        30.24R
SHEYENNE NWR     N/A     52  49  88 CALM      29.95S
BUFFALO          N/A     53  49  87 N6          N/A
WYNDMERE         N/A     55  54  94 N2          N/A
 ***** THE ABOVE OBSERVATIONS ARE NON NWS ARE NOT QUALITY
       CONTROLLED AND MAY MIS-REPORT RAIN FOR SNOW...
$$

  *****  WEATHER ACROSS NORTHERN MINNESOTA  *****

CITY           SKY/WX    TMP DP  RH WIND       PRES   REMARKS
FLAG ISLAND    CLEAR     59  54  82 CALM      30.18S
WARROAD        CLEAR     50  46  87 CALM      30.22R
ROSEAU         CLEAR     50  45  81 CALM      30.21S
HALLOCK        CLEAR     50  48  93 CALM      30.21S
THF RVR FALLS  CLEAR     53  51  93 CALM      30.23S
HALSTAD          N/A     53  50  88 NW5         N/A
FOSSTON        CLEAR     48  46  93 CALM      30.23S
BAUDETTE       CLEAR     53  51  93 W3        30.19R
WASKISH        CLEAR     57  54  88 CALM      30.21S
CROOKSTON      CLEAR     54  52  94 CALM      30.23R
$$
  *****  WEATHER ACROSS CENTRAL AND WEST MINNESOTA  *****

CITY           SKY/WX    TMP DP  RH WIND       PRES   REMARKS
BEMIDJI        CLEAR     51  50  98 CALM      30.22R FOG
PARK RAPIDS    PTCLDY    59  56  89 CALM      30.22S
WADENA         CLEAR     59  57  94 N7        30.21S
DETROIT LAKES  CLOUDY    59  55  88 CALM      30.24S
MOORHEAD       CLEAR     55  52  88 CALM      30.23R
FERGUS FALLS   PTCLDY    63  63 100 NE5       30.23R
ELBOW LAKE     FAIR      64  62  93 CALM      30.21S
MORRIS MN      CLEAR     64  63  94 NW5       30.19F
STAPLES        CLOUDY    61  61 100 N3        30.20F
WHEATON        CLEAR     63  59  88 CALM      30.23S
$$
  *****  WEATHER ELSEWHERE ACROSS MINNESOTA  *****

CITY           SKY/WX    TMP DP  RH WIND       PRES   REMARKS
DULUTH         CLOUDY    66  65  96 SW8       30.16R
INTRNTL FALLS  CLEAR     50  48  93 CALM      30.18R
ELY            CLEAR     63  61  94 NW3       30.16R
CLOQUET        CLOUDY    64  63  94 SW6       30.17S
BRAINERD       CLOUDY    66  63  90 CALM      30.19S
HIBBING        CLEAR     59  58  96 NW7       30.17R
ALEXANDRIA     CLEAR     67  62  84 NE8       30.21S
SAINT CLOUD    CLOUDY    66  66 100 CALM      30.19R
MINNEAPOLIS    RAIN      70  65  84 SW10      30.22R
$$

  *****  WEATHER ACROSS SOUTH DAKOTA  *****

CITY           SKY/WX    TMP DP  RH WIND       PRES   REMARKS
SIOUX FALLS    PTCLDY    71  67  87 CALM      30.18R
BROOKINGS      PTCLDY    71  67  87 E3        30.19S
WATERTOWN      CLOUDY    70  65  84 N6        30.22R
HURON          PTCLDY    69  66  90 NE12      30.17R
SISSETON         N/A     60  57  89 NW7       30.21R
ABERDEEN       CLEAR     60  56  86 NE7       30.21S
MITCHELL       PTCLDY    73  68  84 S13       30.16S
PIERRE         CLOUDY    67  59  75 NE10      30.17S
MOBRIDGE       CLEAR     64  55  72 E13       30.20F
RAPID CITY     CLEAR     62  59  90 CALM      30.26S
$$

  *****  SOME WEATHER IN NEARBY STATES *****

CITY           SKY/WX    TMP DP  RH WIND       PRES   REMARKS
GLASGOW MT     PTCLDY    65  43  44 E13       30.14S
GREAT FALLS MT CLOUDY    68  43  40 NE7       30.10S
CHEYENNE WY    CLOUDY    56  42  59 W6        30.38F
SCOTTSBLUFF NE CLEAR     61  57  87 NE6       30.28R
OMAHA NE       CLOUDY    71  67  87 S7        30.17F
DES MOINES IA  MOCLDY    73  70  90 NW6       30.16S
DAVENPORT IA   CLOUDY    68  67  96 CALM      30.17S FOG
CHICAGO IL     MOCLDY    73  72  96 N5        30.17F FOG
EAU CLAIRE WI  CLOUDY    66  65  96 W5        30.18F
LA CROSSE WI   CLOUDY    71  70  96 S6        30.18S
$$

  *****  SOME NATIONAL WEATHER *****

CITY           SKY/WX    TMP DP  RH WIND       PRES   REMARKS
LA GUARDIA NY  CLEAR     75  60  59 NE12      30.13S
RALEIGH NC     PTCLDY    69  64  84 CALM      30.10S
ATLANTA GA     PTCLDY    77  68  73 E6        30.09S
NEW ORLEANS LA PTCLDY    83  78  85 N5        29.94F HX  93
OKLAHOMA CITY  PTCLDY    75  70  84 E3        30.11F
ALBUQUERQUE NM PTCLDY    64  50  60 E15       30.32S
SALT LAKE CITY CLEAR     74  37  26 SE8       30.12F
LOS ANGELES CA CLEAR     70  60  70 CALM      29.88S
BOISE ID       MOCLDY    73  33  23 SE5       29.99F
SEATTLE WA     CLEAR     59  53  80 SW6       30.04R
$$

*** WEATHER ACROSS MANITOBA...SASKATCHEWAN AND ONTARIO ***
                ***ONTARIO***

CITY           SKY/WX    TMP DP  RH WIND       PRES   REMARKS
GERALDTON      PTCLDY    63  63 100 W6        30.02F
THUNDER BAY    CLEAR     59  59 100 SW6       30.08R
SIOUX LOOKOUT  CLEAR     55  52  88 N6        30.13S
TORONTO        CLEAR     64  55  72 NW7       30.18S
BIG TROUT LK   CLOUDY    59  52  77 W8        29.95F
PICKLE LAKE    NOT AVBL
DRYDEN         CLEAR     54  52  94 W7        30.15F
KENORA         CLEAR     55  50  82 W6        30.18F
$$
                *** MANITOBA***

CITY           SKY/WX    TMP DP  RH WIND       PRES   REMARKS
BRANDON        CLEAR     45  41  87 NW3       30.24S
DAUPHIN        CLEAR     50  45  81 W7        30.22R
ISLAND LAKE    PTCLDY    57  50  77 W22       30.02
PILOT MOUND      N/A     52  48  87 W3          N/A
THE PAS        NOT AVBL
THOMPSON       LGT RAIN  54  52  94 NW10      30.03R FOG
WINNIPEG       CLEAR     50  46  87 SW2       30.20S
LYNN LAKE      CLOUDY    52  50  93 MISG      30.11R
CHURCHILL      LGT RAIN  46  46 100 N16G25    29.95R FOG
GILLAM         CLOUDY    54  50  87 N18G28    29.93R
$$
                ***SASKATCHEWAN***

CITY           SKY/WX    TMP DP  RH WIND       PRES   REMARKS
ESTEVAN        CLEAR     54  45  71 E7        30.23F
KINDERSLEY     CLOUDY    54  46  76 NE10      30.21R
LLOYDMINSTER   CLEAR     46  43  87 E5        30.24S
PRINCE ALBERT  CLEAR     39  39 100 CALM      30.26R
REGINA         PTCLDY    55  45  67 E8        30.23S
YORKTON        CLEAR     50  46  87 W3        30.24S   C1F1C2F2C3F3C4F4C5F5C6F6C7F7C8F8C9F9CaFaCbFbCcFcCdFdCe!



USA.gov is the U.S. government's official web portal to all federal, state and local government web resources and services.